Location: Follega
(52.8850°N, 5.7362°E)
Time: 13:08:41
(UTC+00:00)

Aureole 2 Rocket - Pass Details

Date: 01 June 2020
Orbit: 306 x 432 km, 73.9° (Epoch: 11 July)

Event Time Altitude Azimuth Distance (km) Brightness Sun altitude
Rises 20:59:04 0° 203° (SSW) 2,279 5.7 -7.6°
Reaches altitude 10° 21:01:07 10° 202° (SSW) 1,403 4.6 -7.8°
Maximum altitude 21:04:11 84° 116° (ESE) 378 1.9 -8.1°
Drops below altitude 10° 21:07:07 10° 27° (NNE) 1,342 5.2 -8.3°
Sets 21:09:03 0° 27° (NNE) 2,167 6.3 -8.5°
